Location: Bydgoszcz
(53.1167°N, 18.0000°E)
Time: 12:57:45
(UTC+01:00)

ISS - Visible Passes

Search period start: 13 December 2018 00:00
Search period end: 23 December 2018 00:00
Orbit: 401 x 408 km, 51.6° (Epoch: 13 December)

Date Brightness Start Highest point End Pass type
(mag) Time Alt. Az. Time Alt. Az. Time Alt. Az.
13 Dec -1.1 16:30:52 10° W 16:33:26 22° SSW 16:36:02 10° SSE visible
15 Dec -0.4 16:23:40 10° WSW 16:25:13 13° SW 16:26:47 10° S visible
22 Dec -0.3 07:06:55 10° SSE 07:08:13 12° SE 07:09:31 10° ESE visible
